Ave Maria, FL

8:07 PM EDT on September 28, 2016 (GMT -0400)
Immokalee

Weather History for KIMM - December, 2013

Change the Weather History Date:

Friday, December 27, 2013

  Actual Average (KFMY) Record (KFMY)
Temperature  
Mean Temperature 74 °F 65 °F  
Max Temperature 84 °F 75 °F 88 °F (1911)
Min Temperature 64 °F 55 °F 34 °F (1935)
Degree Days  
Heating Degree Days 0 3  
Month to date heating degree days 59  
Since 1 July heating degree days 77  
Cooling Degree Days 9 3  
Month to date cooling degree days 109  
Year to date cooling degree days 3972  
Growing Degree Days 24 (Base 50)    
Moisture  
Dew Point 71 °F    
Average Humidity 82    
Maximum Humidity 100    
Minimum Humidity 62    
Precipitation  
Precipitation 0.00 in 0.06 in 1.47 in (1986)
Month to date precipitation 1.47  
Year to date precipitation 55.69  
Sea Level Pressure  
Sea Level Pressure 30.17 in    
Wind  
Wind Speed 9 mph (NE)    
Max Wind Speed 16 mph    
Max Gust Speed 20 mph    
Visibility 9 miles    
Events      
T = Trace of Precipitation, MM = Missing Value Source: NWS Daily Summary

Daily Weather History Graph

Daily Weather History Graph

Search for Another Location

Airport or City:

Trip Planner

Search our weather history database for the weather conditions in past years. The results will help you decide how hot, cold, wet, or windy it might be!

Date:

Astronomy

Dec. 27, 2013 Rise Set
Actual Time 7:12 AM EST 5:41 PM EST
Civil Twilight 6:46 AM EST 6:07 PM EST
Nautical Twilight 6:17 AM EST 6:35 PM EST
Astronomical Twilight 5:49 AM EST 7:04 PM EST
Moon 2:00 AM EST (12/27) 1:35 PM EST (12/27)
Length of Visible Light 11h 20m
Length of Day
10h 29m
Waning Crescent, 28% of the Moon is Illuminated
Dec 27
Waning Crescent
Jan 1
New
Jan 7
First Quarter
Jan 15
Full
Jan 24
Last Quarter

Hourly Weather History & Observations

Time (EST) Temp. Heat Index Dew Point Humidity Pressure Visibility Wind Dir Wind Speed Gust Speed Precip Events Conditions
12:15 AM 68.0 °F - - N/A% 30.16 in 10.0 mi ENE 8.1 mph - 0.00 in   Scattered Clouds
12:35 AM 68.0 °F - - N/A% 30.16 in 10.0 mi NE 10.4 mph - 0.00 in   Mostly Cloudy
12:55 AM 66.2 °F - - N/A% 30.16 in 10.0 mi NNE 8.1 mph - 0.00 in   Mostly Cloudy
1:15 AM 66.2 °F - - N/A% 30.15 in 10.0 mi NE 8.1 mph - 0.00 in   Scattered Clouds
1:35 AM 64.4 °F - - N/A% 30.15 in 9.0 mi NNE 9.2 mph - 0.00 in   Scattered Clouds
1:55 AM 64.4 °F - - N/A% 30.15 in 8.0 mi NNE 9.2 mph - 0.00 in   Mostly Cloudy
2:15 AM 64.4 °F - - N/A% 30.15 in 9.0 mi NNE 9.2 mph - 0.00 in   Overcast
2:35 AM 64.4 °F - - N/A% 30.15 in 8.0 mi NNE 10.4 mph - 0.00 in   Overcast
2:55 AM 64.4 °F - - N/A% 30.14 in 7.0 mi NNE 11.5 mph - 0.00 in   Overcast
3:15 AM 64.4 °F - - N/A% 30.14 in 5.0 mi NNE 11.5 mph - 0.00 in   Overcast
3:35 AM 64.4 °F - - N/A% 30.15 in 2.5 mi NNE 10.4 mph - 0.00 in   Overcast
3:55 AM 64.4 °F - - N/A% 30.14 in 3.0 mi NNE 9.2 mph - 0.00 in   Overcast
4:15 AM 64.4 °F - - N/A% 30.15 in 4.0 mi NE 9.2 mph - 0.00 in   Overcast
4:35 AM 64.4 °F - - N/A% 30.15 in 4.0 mi NNE 9.2 mph - 0.00 in   Overcast
4:55 AM 64.4 °F - - N/A% 30.15 in 4.0 mi NE 8.1 mph - 0.00 in   Overcast
5:15 AM 64.4 °F - - N/A% 30.15 in 5.0 mi NE 9.2 mph - 0.00 in   Overcast
5:35 AM 64.4 °F - - N/A% 30.15 in 6.0 mi NNE 9.2 mph - 0.00 in   Overcast
5:55 AM 64.4 °F - - N/A% 30.15 in 7.0 mi NE 9.2 mph - 0.00 in   Overcast
6:15 AM 64.4 °F - - N/A% 30.16 in 6.0 mi NE 6.9 mph - 0.00 in   Overcast
6:35 AM 64.4 °F - - N/A% 30.17 in 7.0 mi NNE 8.1 mph - 0.00 in   Overcast
6:55 AM 64.4 °F - - N/A% 30.17 in 7.0 mi NE 11.5 mph - 0.00 in   Overcast
7:15 AM 64.4 °F - - N/A% 30.18 in 8.0 mi NE 10.4 mph - 0.00 in   Overcast
7:35 AM 64.4 °F - - N/A% 30.19 in 5.0 mi NNE 6.9 mph - 0.00 in   Overcast
7:55 AM 64.4 °F - - N/A% 30.20 in 5.0 mi NNE 9.2 mph - 0.00 in   Overcast
8:15 AM 64.4 °F - - N/A% 30.20 in 4.0 mi NNE 10.4 mph - 0.00 in   Overcast
8:35 AM 64.4 °F - - N/A% 30.21 in 5.0 mi NNE 8.1 mph - 0.00 in   Overcast
8:55 AM 66.2 °F - - N/A% 30.21 in 7.0 mi NE 11.5 mph - 0.00 in   Overcast
9:15 AM 68.0 °F - 68.0 °F 100% 30.21 in 9.0 mi NE 8.1 mph - 0.00 in   Mostly Cloudy
9:35 AM 71.6 °F - 71.6 °F 100% 30.22 in 10.0 mi NE 9.2 mph - 0.00 in   Partly Cloudy
9:55 AM 73.4 °F - 71.6 °F 94% 30.22 in 10.0 mi NE 8.1 mph - 0.00 in   Clear
10:15 AM 75.2 °F - 71.6 °F 89% 30.23 in 10.0 mi NE 9.2 mph - 0.00 in   Clear
10:35 AM 78.8 °F - 73.4 °F 83% 30.23 in 10.0 mi ENE 8.1 mph - 0.00 in   Clear
10:55 AM 80.6 °F 84.6 °F 71.6 °F 74% 30.23 in 10.0 mi ENE 9.2 mph - 0.00 in   Partly Cloudy
11:15 AM 82.4 °F 87.2 °F 71.6 °F 70% 30.21 in 10.0 mi East 12.7 mph - 0.00 in   Clear
11:35 AM 82.4 °F 88.2 °F 73.4 °F 74% 30.20 in 10.0 mi ENE 12.7 mph 18.4 mph 0.00 in   Partly Cloudy
11:55 AM 82.4 °F 87.2 °F 71.6 °F 70% 30.20 in 10.0 mi ENE 13.8 mph - 0.00 in   Scattered Clouds
12:15 PM 82.4 °F 86.3 °F 69.8 °F 66% 30.19 in 10.0 mi ENE 10.4 mph - 0.00 in   Mostly Cloudy
12:35 PM 84.2 °F 88.4 °F 69.8 °F 62% 30.18 in 10.0 mi ENE 10.4 mph - 0.00 in   Mostly Cloudy
12:55 PM 84.2 °F 88.4 °F 69.8 °F 62% 30.17 in 10.0 mi ENE 11.5 mph - 0.00 in   Scattered Clouds
1:15 PM 84.2 °F 88.4 °F 69.8 °F 62% 30.16 in 10.0 mi ENE 9.2 mph - 0.00 in   Partly Cloudy
1:35 PM 84.2 °F 88.4 °F 69.8 °F 62% 30.15 in 10.0 mi NE 12.7 mph - 0.00 in   Scattered Clouds
1:55 PM 82.4 °F 86.3 °F 69.8 °F 66% 30.15 in 10.0 mi ENE 9.2 mph - 0.00 in   Scattered Clouds
2:15 PM 80.6 °F 84.6 °F 71.6 °F 74% 30.14 in 10.0 mi NNE 9.2 mph - 0.00 in   Mostly Cloudy
2:35 PM 84.2 °F 89.6 °F 71.6 °F 66% 30.14 in 10.0 mi NE 12.7 mph - 0.00 in   Mostly Cloudy
2:55 PM 84.2 °F 88.4 °F 69.8 °F 62% 30.12 in 10.0 mi ENE 11.5 mph - 0.00 in   Scattered Clouds
3:15 PM 82.4 °F 87.2 °F 71.6 °F 70% 30.11 in 10.0 mi ENE 12.7 mph - 0.00 in   Partly Cloudy
3:35 PM 80.6 °F 84.6 °F 71.6 °F 74% 30.10 in 10.0 mi NE 15.0 mph - 0.00 in   Clear
3:55 PM 80.6 °F 84.6 °F 71.6 °F 74% 30.12 in 10.0 mi NE 16.1 mph - 0.00 in   Clear
4:15 PM 80.6 °F 84.6 °F 71.6 °F 74% 30.12 in 10.0 mi NE 13.8 mph - 0.00 in   Partly Cloudy
4:35 PM 78.8 °F - 71.6 °F 78% 30.13 in 10.0 mi NE 12.7 mph - 0.00 in   Clear
4:55 PM 78.8 °F - 71.6 °F 78% 30.13 in 10.0 mi NE 13.8 mph 19.6 mph 0.00 in   Clear
5:15 PM 78.8 °F - 71.6 °F 78% 30.14 in 10.0 mi ENE 10.4 mph - 0.00 in   Partly Cloudy
5:35 PM 77.0 °F - 71.6 °F 83% 30.14 in 10.0 mi ENE 10.4 mph - 0.00 in   Partly Cloudy
5:55 PM 75.2 °F - 71.6 °F 89% 30.14 in 10.0 mi NE 9.2 mph - 0.00 in   Partly Cloudy
6:15 PM 75.2 °F - 71.6 °F 89% 30.15 in 10.0 mi ENE 6.9 mph - 0.00 in   Mostly Cloudy
6:35 PM 75.2 °F - 73.4 °F 94% 30.16 in 10.0 mi NE 9.2 mph - 0.00 in   Overcast
6:55 PM 75.2 °F - 73.4 °F 94% 30.16 in 10.0 mi ENE 9.2 mph - 0.00 in   Mostly Cloudy
7:15 PM 73.4 °F - 71.6 °F 94% 30.16 in 10.0 mi ENE 10.4 mph - 0.00 in   Partly Cloudy
7:35 PM 73.4 °F - 73.4 °F 100% 30.17 in 10.0 mi ENE 8.1 mph - 0.00 in   Clear
7:55 PM 71.6 °F - 71.6 °F 100% 30.18 in 10.0 mi ENE 6.9 mph - 0.00 in   Clear
8:15 PM 71.6 °F - 71.6 °F 100% 30.18 in 10.0 mi NE 8.1 mph - 0.00 in   Clear
8:35 PM 71.6 °F - 71.6 °F 100% 30.18 in 10.0 mi NE 9.2 mph - 0.00 in   Clear
8:55 PM 69.8 °F - 69.8 °F 100% 30.19 in 10.0 mi NE 9.2 mph - 0.00 in   Clear
9:15 PM 69.8 °F - 69.8 °F 100% 30.19 in 10.0 mi NE 8.1 mph - 0.00 in   Clear
9:35 PM 69.8 °F - 69.8 °F 100% 30.20 in 10.0 mi NE 8.1 mph - 0.00 in   Mostly Cloudy
9:55 PM 69.8 °F - 69.8 °F 100% 30.21 in 10.0 mi NE 5.8 mph - 0.00 in   Mostly Cloudy
10:15 PM 69.8 °F - - N/A% 30.21 in 10.0 mi NNE 5.8 mph - 0.00 in   Mostly Cloudy
10:35 PM 68.0 °F - - N/A% 30.21 in 10.0 mi NE 8.1 mph - 0.00 in   Scattered Clouds
10:55 PM 68.0 °F - - N/A% 30.21 in 10.0 mi NNE 5.8 mph - 0.00 in   Scattered Clouds
11:15 PM 68.0 °F - - N/A% 30.21 in 10.0 mi NNE 8.1 mph - 0.00 in   Scattered Clouds
11:35 PM 66.2 °F - - N/A% 30.20 in 10.0 mi NE 6.9 mph - 0.00 in   Partly Cloudy
11:55 PM 66.2 °F - - N/A% 30.20 in 10.0 mi NE 6.9 mph - 0.00 in   Clear